1304470229073,0.000152338
1304470289073,0.000153419
1304470349073,0.000153626
1304470409073,0.000151955
1304470469073,0.000152028
1304473829084,0.000154990
1304473889084,0.000155214
1304473949084,0.000155075
1304474009084,0.000154578
1304474069084,0.000154132
1304477429095,0.000149743
1304477489095,0.000150113
1304477549095,0.000151208
1304477609095,0.000152007
1304477669095,0.000152881
1304481029106,0.000149728
1304481089106,0.000149949
1304481149106,0.000151607
1304481209106,0.000150128
1304481269106,0.000150134
1304484629116,0.000150132
1304484689116,0.000150161
1304484749116,0.000148952
1304484809116,0.000148771
1304484869116,0.000148052
1304488229126,0.000151505
1304488289126,0.000150086
1304488349126,0.000148647
1304488409126,0.000150011
1304488469126,0.000150348
1304491829137,0.000149818
1304491889137,0.000149498
1304491949137,0.000148491
1304492009137,0.000150014
1304492069137,0.000149257
1304495429147,0.000150382
1304495489147,0.000149201
1304495549147,0.000149029
1304495609147,0.000148117
1304495669147,0.000147780
1304495729147,0.000148204
1304495789147,0.000149208
1304495849147,0.000147698
1304495909147,0.000149476
1304495969147,0.000149892
1304496029157,0.000148263
1304496089157,0.000148859
1304496149157,0.000149366
1304496209158,0.000147843
1304496269157,0.000148039
1304496329157,0.000149290
1304496389157,0.000149456
1304496449157,0.000148250
1304496509157,0.000148390
1304496569158,0.000148715
1304496629158,0.000149023
1304496689158,0.000148042
1304496749158,0.000148313
1304496809158,0.000149021
1304496869158,0.000149145
1304496929157,0.000149072
1304496989157,0.000148945
1304497049157,0.000149781
1304497109157,0.000148476
1304497169157,0.000150050
1304497229157,0.000149933
1304497289157,0.000148821
1304497349157,0.000147942
1304497409157,0.000148769
1304497469157,0.000148675
1304497529157,0.000149372
1304497589158,0.000148425
1304497649157,0.000148691
1304497709157,0.000149903
1304497769157,0.000149459
1304497829157,0.000147485
1304497889158,0.000148881
1304497949158,0.000148504
1304498009158,0.000148632
1304498069158,0.000149759
1304498129158,0.000148093
1304498189158,0.000148649
1304498249158,0.000150225
1304498309157,0.000149363
1304498369157,0.000149456
1304498429157,0.000149186
1304498489157,0.000148105
1304498549157,0.000148410
1304498609157,0.000149083
1304498669157,0.000147839
1304498729157,0.000149379
1304498789157,0.000149691
1304498849157,0.000149071
1304498909158,0.000149302
1304498969157,0.000148205
1304499029157,0.000149066
1304499089157,0.000148364
1304499149157,0.000147718
1304499209157,0.000148056
1304499269158,0.000147283
1304499329158,0.000148094
1304499389158,0.000148464
1304499449158,0.000148051
1304499509158,0.000148314
1304499569158,0.000149317
1304499629168,0.000147322
1304499689168,0.000148762
1304499749168,0.000148712
1304499809168,0.000148786
1304499869168,0.000148724
1304499929168,0.000148122
1304499989168,0.000147946
1304500049168,0.000148311
1304500109168,0.000148379
1304500169168,0.000149393
1304500229168,0.000150105
1304500289168,0.000148589
1304500349168,0.000148991
1304500409168,0.000148990
1304500469168,0.000148664
1304500529168,0.000147874
1304500589168,0.000148945
1304500649168,0.000148639
1304500709168,0.000148369
1304500769168,0.000149349
1304500829168,0.000148651
1304500889168,0.000148124
1304500949168,0.000148318
1304501009168,0.000148106
1304501069168,0.000149099
1304501129168,0.000148303
1304501189168,0.000148262
1304501249168,0.000147729
1304501309168,0.000148900
1304501369168,0.000149559
1304501429168,0.000148461
1304501489168,0.000147826
1304501549168,0.000148704
1304501609168,0.000147821
1304501669168,0.000148460
1304501729168,0.000148150
1304501789168,0.000150311
1304501849168,0.000148615
1304501909168,0.000147968
1304501969168,0.000148492
1304502029168,0.000148936
1304502089168,0.000147345
1304502149168,0.000148700
1304502209168,0.000147175
1304502269168,0.000147561
1304502329168,0.000148724
1304502389168,0.000146952
1304502449168,0.000148612
1304502509168,0.000147444
1304502569168,0.000147266
1304502629168,0.000147475
1304502689168,0.000147980
1304502749168,0.000148592
1304502809168,0.000147328
1304502869168,0.000146851
1304502929168,0.000148269
1304502989168,0.000146643
1304503049168,0.000148176
1304503109168,0.000147490
1304503169168,0.000146130
1304503229178,0.000145836
1304503289178,0.000147338
1304503349178,0.000146735
1304503409178,0.000147032
1304503469178,0.000147663
1304503529178,0.000147160
1304503589178,0.000146787
1304503649178,0.000147970
1304503709178,0.000147310
1304503769178,0.000147387
1304503829178,0.000147561
1304503889178,0.000148305
1304503949178,0.000148440
1304504009178,0.000148208
1304504069178,0.000147972
1304504129178,0.000148387
1304504189178,0.000147952
1304504249178,0.000147420
1304504309178,0.000145817
1304504369178,0.000148707
1304504429178,0.000147683
1304504489178,0.000148411
1304504549178,0.000147561
1304504609178,0.000147323
1304504669178,0.000148808
1304504729178,0.000147561
1304504789178,0.000147845
1304504849178,0.000148117
1304504909178,0.000148647
1304504969178,0.000149244
1304505029178,0.000149041
1304505089178,0.000148378
1304505149178,0.000147441
1304505209178,0.000148839
1304505269178,0.000150263
1304505329178,0.000150162
1304505389178,0.000147919
1304505449178,0.000148415
1304505509178,0.000148352
1304505569178,0.000147147
1304505629178,0.000147792
1304505689178,0.000148881
1304505749178,0.000148467
1304505809178,0.000149692
1304505869178,0.000146613
1304505929178,0.000148034
1304505989178,0.000149198
1304506049178,0.000146676
1304506109178,0.000148126
1304506169178,0.000148920
1304506229178,0.000147387
1304506289178,0.000146639
1304506349178,0.000147008
1304506409178,0.000148786
1304506469178,0.000147953
1304509829188,0.000148751
1304509889188,0.000149797
1304509949188,0.000147692
1304510009188,0.000149018
1304510069188,0.000147340
1304513429199,0.000150863
1304513489199,0.000147325
1304513549199,0.000150226
1304513609199,0.000148986
1304513669199,0.000147636
1304517029209,0.000148177
1304517089209,0.000149315
1304517149209,0.000147917
1304517209209,0.000147567
1304517269209,0.000148561
1304520629219,0.000150138
1304520689219,0.000150850
1304520749219,0.000150290
1304520809219,0.000149496
1304520869219,0.000150456
1304524229229,0.000150555
1304524289229,0.000150327
1304524349229,0.000150017
1304524409229,0.000149633
1304524469229,0.000150482
1304527829239,0.000148058
1304527889239,0.000150324
1304527949239,0.000151563
1304528009239,0.000150601
1304528069239,0.000150806
1304532809261,0.000150953
1304532869261,0.000153879
1304532929261,0.000152309
1304532989261,0.000153076
1304533049261,0.000153712
1304533109261,0.000152056
1304533169261,0.000152285
1304533229261,0.000151292
1304533289261,0.000152941
1304533349261,0.000151641
1304533409261,0.000151681
1304533469261,0.000153446
1304533529261,0.000153066
1304533589261,0.000153355
1304533649261,0.000151140
1304533709261,0.000151732
1304533769261,0.000151123
1304533829261,0.000151604
1304533889261,0.000152015
1304533949261,0.000150914
1304534009261,0.000150999
1304534069261,0.000153410
1304534129261,0.000153494
1304534189261,0.000151858
1304534249261,0.000151827
1304534309261,0.000151046
1304534369261,0.000151487
1304534429261,0.000152024
1304534489261,0.000153422
1304534549261,0.000151075
1304534609261,0.000149576
1304534669261,0.000152082
1304534729261,0.000151519
1304534789261,0.000151027
1304534849261,0.000151549
1304534909261,0.000151938
1304534969261,0.000151959
1304535029261,0.000150798
1304535089261,0.000152152
1304535149261,0.000151288
1304535209261,0.000153217
1304535269261,0.000150928
1304538629269,0.000152230
1304538689269,0.000152803
1304538749269,0.000151025
1304538809269,0.000150862
1304538869269,0.000152368
1304542229279,0.000150956
1304542289279,0.000151605
1304542349279,0.000151263
1304542409279,0.000151203
1304542469279,0.000152473
1304545829290,0.000152351
1304545889290,0.000152283
1304545949290,0.000152739
1304546009290,0.000152084
1304546069290,0.000152425
1304549429301,0.000153735
1304549489301,0.000152318
1304549549301,0.000150773
1304549609301,0.000151703
1304549669301,0.000149349
1304553029312,0.000150351
1304553089312,0.000151997
1304553149312,0.000151308
1304553209312,0.000150454
1304553269312,0.000149227
